Showing default

ICEYE-X32, 58293

Orbit data source: Space-Track

ICEYE-X32, 58293 is a payload satellite owned by ICEYE (FI) in SSO that was launched on Sat, 11 Nov 2023 UTC via an FALCON 9 launch vehicle from the Air Force Western Test Range (AFWTR). Payloads include a variety of satellites, spacecraft, and rockets equipped with specific instruments for various scientific and technological missions. These include communications satellites like Starlink; space stations such as the ISS; scientific satellites like the Hubble; Earth observation satellites from companies like Planet Labs, Umbra, and HawkEye 360; GPS; miniature CubeSats for education and research; and military/defense satellites.

Loading next visibility...
ICEYE-X32 details
Identifier
58293, 2023-174AP
Orbit
SSO
Last TLE update4 hours ago
Origin
Flag of FIICEYE (FI / FIN)
ManufacturerICEYE
MissionOperational Commercial Radar Imaging
Bus & MotorICEYE, Unknown motor
Mass90 kg wet, 89 kg dry
Launch date (UTC)
2023-11-11 (1 year ago)
Launch vehicle
FALCON 9
Launch site
Air Force Western Test Range (AFWTR)
Object type
Payload
Rocket body
Debris
Shape & HBRBox + 1 Pan, 3.25 m
Radar Cross Section0.825 m², Large (>1 m²)

Expand to show TLE details & history

TLE from 4 hours ago
0 ICEYE-X32
1 58293U 23174AP  24356.50081230  .00093806  00000-0  17737-2 0  9996
2 58293  97.4330  72.8217 0006380 275.9920  84.0603 15.48050950 62436
Epoch: 2024-12-21T12:01Z
Definitive object data (Epoch: 2024-12-21T12:01:10.182Z)
Latitude-0.00004°
Longitude161.97821°
Altitude425.109 km
Speed7.657 km/s
True Right ascension04h 51m 17s
True Declination0° 00' 00"
Sunlit
Object was in full shadow at TLE epoch
Visualization TLE readout
Latitude-79.8288°
Longitude-64.15521°
Altitude446.161 km
Speed7.646 km/s
Apparent Right ascension03h 45m 53s
Apparent Declination-70° 29' 57"
Sunlit
Object is in daylight
Visualization observer readout
Local Sidereal Time15:17:43
Azimuth184.583° SSW
Elevation-59.2°
Doppler factor1
Orbital elements
Apogee altitude423.695 km
Perigee altitude415.021 km
Semi-major axis6,797.495 km
Eccentricity0.000638
Inclination97.433°
RAAN72.8217°
Arg. of periapsis275.992°
True anomaly84.13302°
Mean anomaly84.0603°
Eccentric anomaly84.09666°
Mean motion3.87275 °/min
BSTAR0.0017737
Orbital period92.96 mins
Loading maneuver chart data...
Loading historical data...
Loading historical data...
Loading historical data...
Loading historical data...
Loading historical data...
Loading historical data...
Loading historical data...

ICEYE-X32 Visibility forecast

Observer location: undefined°, undefined

Span
Click to sort rows by Start time (UTC) header in descending order
Start Az.
Max El. time (UTC)
Max El. Az.
Max El.
End time (UTC)
End Az.
4 mins2024-12-22 05:14:18.221Z145.903° SSE2024-12-22 05:15:18.221Z101.892° ESE41.338°2024-12-22 05:18:18.221Z355.461° N
|